When you browse on this site, cookies collect data to enhance your experience and personalize the content and advertising you see.
Visit our Privacy Policy to learn more. By continuing to use the site, you agree to this use of cookies and data.
  • In Germany
  • List of Countries
  • For 7 days
  • Water Temperature
  • Satellite Maps
  • Weather Map
  • Weather Widgets
  • user-avatar
    Login

    Hourly Weather Golejewo

    Today, 24 May, Friday

    Time Temperature Precipitation Wind Pressure Humidity
    00:00 +9°C° 0 mm 2 mps 750 mmHg 95%
    01:00 +9°C° 0 mm 2 mps 750 mmHg 95%
    02:00 +9°C° 0 mm 2 mps 750 mmHg 93%
    03:00 +9°C° 0 mm 2 mps 750 mmHg 91%
    04:00 +9°C° 0 mm 2 mps 750 mmHg 89%
    05:00 +10°C° 0 mm 2 mps 750 mmHg 85%
    06:00 +12°C° 0 mm 2 mps 750 mmHg 81%
    07:00 +14°C° 0 mm 2 mps 749 mmHg 77%
    08:00 +15°C° 0 mm 2 mps 749 mmHg 73%
    09:00 +16°C° 0 mm 2 mps 749 mmHg 69%
    10:00 +18°C° 0 mm 2 mps 749 mmHg 65%
    11:00 +18°C° 0 mm 2 mps 749 mmHg 65%
    12:00 +19°C° 0 mm 2 mps 749 mmHg 64%
    13:00 +19°C° 0 mm 2 mps 749 mmHg 63%
    14:00 +19°C° 0 mm 2 mps 749 mmHg 62%
    15:00 +20°C° 0 mm 2 mps 748 mmHg 60%
    16:00 +21°C° 0 mm 1 mps 748 mmHg 59%
    17:00 +20°C° 0 mm 1 mps 748 mmHg 64%
    18:00 +19°C° 0 mm 1 mps 748 mmHg 69%
    19:00 +18°C° 0 mm 1 mps 747 mmHg 73%
    20:00 +15°C° 0 mm 1 mps 747 mmHg 75%
    21:00 +14°C° 0 mm 2 mps 747 mmHg 76%
    22:00 +13°C° 0 mm 2 mps 747 mmHg 78%
    23:00 +12°C° 0 mm 2 mps 747 mmHg 78%

    Tomorrow, 25 May, Saturday

    Time Temperature Precipitation Wind Pressure Humidity
    00:00 +12°C° 0 mm 2 mps 747 mmHg 78%
    01:00 +10°C° 0 mm 2 mps 747 mmHg 77%
    02:00 +10°C° 0 mm 2 mps 747 mmHg 77%
    03:00 +10°C° 0 mm 2 mps 747 mmHg 77%
    04:00 +10°C° 0 mm 2 mps 747 mmHg 77%
    05:00 +12°C° 0 mm 2 mps 747 mmHg 75%
    06:00 +14°C° 0 mm 2 mps 747 mmHg 73%
    07:00 +14°C° 0 mm 3 mps 747 mmHg 70%
    08:00 +17°C° 0 mm 3 mps 747 mmHg 70%
    09:00 +18°C° 0 mm 3 mps 747 mmHg 69%
    10:00 +19°C° 0 mm 4 mps 747 mmHg 69%
    11:00 +20°C° 0.2 mm 4 mps 747 mmHg 65%
    12:00 +20°C° 0.2 mm 5 mps 747 mmHg 61%
    13:00 +21°C° 0.2 mm 5 mps 747 mmHg 57%
    14:00 +20°C° 0 mm 5 mps 747 mmHg 60%
    15:00 +20°C° 0 mm 5 mps 747 mmHg 63%
    16:00 +19°C° 0 mm 5 mps 747 mmHg 67%
    17:00 +18°C° 0 mm 4 mps 747 mmHg 70%
    18:00 +17°C° 0 mm 3 mps 747 mmHg 74%
    19:00 +14°C° 0 mm 3 mps 747 mmHg 78%
    20:00 +14°C° 0 mm 2 mps 747 mmHg 80%
    21:00 +13°C° 0 mm 2 mps 748 mmHg 82%
    22:00 +10°C° 0 mm 2 mps 748 mmHg 83%
    23:00 +10°C° 0 mm 2 mps 748 mmHg 86%

    Day after tomorrow, 26 May, Sunday

    Time Temperature Precipitation Wind Pressure Humidity
    00:00 +9°C° 0 mm 2 mps 748 mmHg 88%
    01:00 +9°C° 0 mm 2 mps 748 mmHg 90%
    02:00 +8°C° 0 mm 2 mps 748 mmHg 91%
    03:00 +8°C° 0 mm 2 mps 748 mmHg 92%
    04:00 +8°C° 0 mm 2 mps 748 mmHg 94%
    05:00 +9°C° 0 mm 2 mps 748 mmHg 88%
    06:00 +11°C° 0 mm 3 mps 748 mmHg 83%
    07:00 +13°C° 0 mm 3 mps 748 mmHg 78%
    08:00 +14°C° 0 mm 3 mps 747 mmHg 73%
    09:00 +15°C° 0 mm 4 mps 747 mmHg 68%
    10:00 +17°C° 0 mm 5 mps 747 mmHg 63%
    11:00 +17°C° 0 mm 5 mps 747 mmHg 62%
    12:00 +19°C° 0 mm 6 mps 747 mmHg 61%
    13:00 +20°C° 0 mm 6 mps 747 mmHg 60%
    14:00 +19°C° 0.1 mm 6 mps 746 mmHg 61%
    15:00 +19°C° 0.1 mm 6 mps 746 mmHg 62%
    16:00 +19°C° 0.1 mm 6 mps 746 mmHg 63%
    17:00 +17°C° 0 mm 5 mps 746 mmHg 68%
    18:00 +17°C° 0 mm 3 mps 746 mmHg 73%
    19:00 +16°C° 0 mm 2 mps 746 mmHg 77%
    20:00 +15°C° 0 mm 2 mps 746 mmHg 80%
    21:00 +14°C° 0 mm 2 mps 746 mmHg 82%
    22:00 +13°C° 0 mm 2 mps 747 mmHg 84%
    23:00 +12°C° 0 mm 2 mps 747 mmHg 86%

    27 May, Monday

    Time Temperature Precipitation Wind Pressure Humidity
    00:00 +12°C° 0 mm 2 mps 747 mmHg 87%
    01:00 +11°C° 0 mm 3 mps 747 mmHg 88%
    02:00 +11°C° 0 mm 3 mps 746 mmHg 89%
    03:00 +11°C° 0 mm 3 mps 746 mmHg 90%
    04:00 +10°C° 0 mm 3 mps 746 mmHg 91%
    05:00 +12°C° 0 mm 3 mps 746 mmHg 86%
    06:00 +14°C° 0 mm 4 mps 746 mmHg 81%
    07:00 +16°C° 0 mm 5 mps 746 mmHg 76%
    08:00 +17°C° 0 mm 5 mps 746 mmHg 72%
    09:00 +20°C° 0 mm 6 mps 746 mmHg 67%
    10:00 +22°C° 0 mm 6 mps 745 mmHg 62%
    11:00 +22°C° 0.5 mm 6 mps 745 mmHg 62%
    12:00 +23°C° 0.5 mm 6 mps 745 mmHg 62%
    13:00 +23°C° 0.5 mm 6 mps 745 mmHg 62%
    14:00 +22°C° 0.9 mm 6 mps 745 mmHg 67%
    15:00 +22°C° 0.9 mm 5 mps 745 mmHg 71%
    16:00 +21°C° 0.9 mm 5 mps 745 mmHg 76%
    17:00 +20°C° 0.9 mm 4 mps 745 mmHg 80%
    18:00 +19°C° 0.9 mm 3 mps 745 mmHg 84%
    19:00 +18°C° 0.9 mm 2 mps 745 mmHg 87%
    20:00 +17°C° 0 mm 2 mps 745 mmHg 88%
    21:00 +16°C° 0 mm 2 mps 746 mmHg 88%
    22:00 +15°C° 0 mm 2 mps 746 mmHg 88%
    23:00 +14°C° 0 mm 2 mps 746 mmHg 90%

    28 May, Tuesday

    Time Temperature Precipitation Wind Pressure Humidity
    00:00 +14°C° 0 mm 2 mps 746 mmHg 92%
    01:00 +13°C° 0 mm 2 mps 746 mmHg 94%
    02:00 +13°C° 0 mm 2 mps 746 mmHg 95%
    03:00 +12°C° 0 mm 3 mps 746 mmHg 96%
    04:00 +12°C° 0 mm 3 mps 745 mmHg 97%
    05:00 +12°C° 0 mm 3 mps 745 mmHg 94%
    06:00 +13°C° 0 mm 4 mps 745 mmHg 92%
    07:00 +14°C° 0 mm 4 mps 745 mmHg 90%
    08:00 +14°C° 0.3 mm 4 mps 745 mmHg 90%
    09:00 +15°C° 0.3 mm 4 mps 745 mmHg 89%
    10:00 +15°C° 0.3 mm 5 mps 744 mmHg 89%
    11:00 +14°C° 1.3 mm 5 mps 744 mmHg 91%
    12:00 +14°C° 1.3 mm 5 mps 744 mmHg 92%
    13:00 +14°C° 1.3 mm 4 mps 743 mmHg 94%
    14:00 +14°C° 0.5 mm 5 mps 743 mmHg 94%
    15:00 +13°C° 0.5 mm 5 mps 743 mmHg 94%
    16:00 +13°C° 0.5 mm 5 mps 743 mmHg 94%
    17:00 +13°C° 0.2 mm 5 mps 743 mmHg 94%
    18:00 +13°C° 0.2 mm 5 mps 743 mmHg 94%
    19:00 +12°C° 0.2 mm 5 mps 743 mmHg 95%
    20:00 +12°C° 0.2 mm 5 mps 743 mmHg 95%
    21:00 +12°C° 0.2 mm 5 mps 743 mmHg 95%
    22:00 +12°C° 0.2 mm 5 mps 743 mmHg 95%
    23:00 +12°C° 0.5 mm 5 mps 743 mmHg 95%

    29 May, Wednesday

    Time Temperature Precipitation Wind Pressure Humidity
    00:00 +12°C° 0.5 mm 4 mps 743 mmHg 95%
    01:00 +12°C° 0.5 mm 4 mps 743 mmHg 95%
    02:00 +12°C° 0.3 mm 4 mps 743 mmHg 95%
    03:00 +12°C° 0.3 mm 4 mps 744 mmHg 95%
    04:00 +11°C° 0.3 mm 4 mps 744 mmHg 95%
    05:00 +12°C° 0.2 mm 4 mps 744 mmHg 94%
    06:00 +12°C° 0.2 mm 4 mps 744 mmHg 94%
    07:00 +12°C° 0.2 mm 4 mps 745 mmHg 93%
    08:00 +13°C° 0.1 mm 4 mps 745 mmHg 91%
    09:00 +14°C° 0.1 mm 4 mps 745 mmHg 89%
    10:00 +15°C° 0.1 mm 4 mps 745 mmHg 87%
    11:00 +15°C° 0 mm 4 mps 745 mmHg 86%
    12:00 +15°C° 0 mm 4 mps 746 mmHg 84%
    13:00 +17°C° 0 mm 4 mps 746 mmHg 83%
    14:00 +17°C° 0.1 mm 3 mps 746 mmHg 83%
    15:00 +17°C° 0.1 mm 3 mps 746 mmHg 84%
    16:00 +17°C° 0.1 mm 2 mps 747 mmHg 84%
    17:00 +16°C° 0.3 mm 3 mps 747 mmHg 86%
    18:00 +16°C° 0.3 mm 3 mps 747 mmHg 89%
    19:00 +14°C° 0.3 mm 3 mps 748 mmHg 91%
    20:00 +13°C° 0.3 mm 4 mps 748 mmHg 91%
    21:00 +12°C° 0.3 mm 4 mps 749 mmHg 91%
    22:00 +12°C° 0.3 mm 4 mps 749 mmHg 91%
    23:00 +11°C° 0.3 mm 4 mps 750 mmHg 91%
    Show more